This is the latest recevied weather packets stored in our database for station/object NN3A-3. If no packets are shown the sender has not sent any weather packets the latest 10 day(s).
| Time | Temp. | Humidity | Pressure | Rain* | Wind** | Luminosity | Snow |
|---|---|---|---|---|---|---|---|
| 1777917829 | 19.44° C | 63% | 1010.3 hPa | 0 mm | - | - | - |
| 1777917530 | 20° C | 64% | 1010.3 hPa | 0 mm | - | - | - |
| 1777917229 | 20° C | 62% | 1010.3 hPa | 0 mm | - | - | - |
| 1777916929 | 20° C | 61% | 1010.3 hPa | 0 mm | - | - | - |
| 1777916629 | 20° C | 61% | 1010.3 hPa | 0 mm | - | - | - |
| 1777916031 | 20° C | 62% | 1010.3 hPa | 0 mm | - | - | - |
| 1777915430 | 19.44° C | 62% | 1010.6 hPa | 0 mm | - | - | - |
| 1777915130 | 19.44° C | 62% | 1010.6 hPa | 0 mm | - | - | - |
| 1777914230 | 19.44° C | 62% | 1010.6 hPa | 0 mm | - | - | - |
| 1777913932 | 19.44° C | 61% | 1011 hPa | 0 mm | - | - | - |
| 1777913631 | 19.44° C | 62% | 1011 hPa | 0 mm | - | - | - |
| 1777913331 | 18.89° C | 63% | 1011 hPa | 0 mm | - | - | - |
| 1777913032 | 19.44° C | 61% | 1011 hPa | 0 mm | - | - | - |
| 1777912432 | 18.89° C | 63% | 1011 hPa | 0 mm | - | - | - |
| 1777912132 | 18.33° C | 62% | 1011 hPa | 0 mm | - | - | - |
| 1777911832 | 18.33° C | 63% | 1011.3 hPa | 0 mm | - | - | - |
| 1777911532 | 18.89° C | 61% | 1011.3 hPa | 0 mm | - | - | - |
| 1777911232 | 18.33° C | 64% | 1011.3 hPa | 0 mm | - | - | - |
| 1777910632 | 18.33° C | 62% | 1011.3 hPa | 0 mm | - | - | - |
| 1777910335 | 18.89° C | 63% | 1011.3 hPa | 0 mm | - | - | - |
| 1777910033 | 18.33° C | 63% | 1011.3 hPa | 0 mm | - | - | - |
| 1777909733 | 17.22° C | 62% | 1011.3 hPa | 0 mm | - | - | - |
| 1777909434 | 18.89° C | 63% | 1011.3 hPa | 0 mm | - | - | - |
| 1777908833 | 18.33° C | 64% | 1011.6 hPa | 0 mm | - | - | - |
| 1777908533 | 17.22° C | 63% | 1011.6 hPa | 0 mm | - | - | - |
* Rain latest hour (hover to see other rain measurements)
** Current wind speed in m/s (hover to see current wind gust speed)